Weather reports worldwide

Advertisment
Boscombe Down, United Kingdom (3746): temperature & dewpoint: 12.07.2019 06:00:00 - 18.07.2019 06:00:00 (BST)Boscombe Down, United Kingdom (3746): wind speed: 12.07.2019 06:00:00 - 18.07.2019 06:00:00 (BST)Boscombe Down, United Kingdom (3746): wind direction: 12.07.2019 06:00:00 - 18.07.2019 06:00:00 (BST)Boscombe Down, United Kingdom (3746): reduced air pressure: 12.07.2019 06:00:00 - 18.07.2019 06:00:00 (BST)Boscombe Down, United Kingdom (3746): visibility: 12.07.2019 06:00:00 - 18.07.2019 06:00:00 (BST)Boscombe Down, United Kingdom (3746): precipitation: 12.07.2019 06:00:00 - 18.07.2019 06:00:00 (BST)
Date & Time tt [°C] td [°C] ff [km/h] ff [kn] dd ppp [hPa] vv [km] rr [mm]
18.07.2019 06:00:00 16,0 15,6 15 8 SSW 1009,4 5 0,0
18.07.2019 05:00:00 15,3 14,7 13 7 S 1009,7 9 0,0
18.07.2019 04:00:00 14,7 13,9 9 5 S 1010,2 11 0,0
18.07.2019 03:00:00 15,1 13,9 9 5 SSW 1010,7 12 0,0
18.07.2019 02:00:00 14,2 13,1 8 4 S 1011,4 7 0,0
18.07.2019 01:00:00 14,0 12,5 4 2 S 1011,9 11 0,0
18.07.2019 00:00:00 15,7 13,2 4 2 SW 1012,0 17 0,0
17.07.2019 23:00:00 16,8 13,3 9 5 W 1012,3 10 0,0
17.07.2019 22:00:00 17,6 14,0 13 7 WSW 1012,5 10 0,0
17.07.2019 21:00:00 18,3 13,9 13 7 SW 1012,3 40 0,0
17.07.2019 20:00:00 19,2 13,3 15 8 SW 1012,1 45 0,0
17.07.2019 19:00:00 21,4 10,8 16 9 WSW 1012,2 50 0,0
17.07.2019 18:00:00 21,5 9,1 15 8 S 1012,5 10 0,0
17.07.2019 17:00:00 21,7 8,3 15 8 SSW 1012,9 10 0,0
17.07.2019 16:00:00 21,9 9,8 18 10 SW 1013,3 10 0,0
17.07.2019 15:00:00 22,2 11,6 21 11 SSW 1013,6 10 0,0
17.07.2019 14:00:00 21,8 13,2 13 7 SW 1013,9 10 0,0
17.07.2019 13:00:00 21,7 12,0 15 8 WSW 1014,4 10 0,0
17.07.2019 12:00:00 21,1 12,9 15 8 SSW 1014,9 30 0,0
17.07.2019 11:00:00 20,3 14,1 11 6 SSW 1015,2 10 0,0
17.07.2019 10:00:00 18,7 13,6 8 4 S 1015,5 10 0,0
17.07.2019 09:00:00 16,9 13,2 8 4 S 1015,8 10 0,0
17.07.2019 08:00:00 14,7 13,0 5 3 S 1015,9 15 0,0
17.07.2019 07:00:00 12,5 11,2 4 2 W 1015,8 10 0,0
17.07.2019 06:00:00 11,5 10,5 5 3 NNW 1016,1 7 0,0
17.07.2019 05:00:00 12,1 11,0 2 1 WNW 1016,3 9 0,0
17.07.2019 04:00:00 12,3 10,8 4 2 NW 1016,6 13 0,0
17.07.2019 03:00:00 13,3 11,1 4 2 W 1017,1 15 0,0
17.07.2019 02:00:00 14,1 11,2 5 3 W 1017,6 10 0,0
17.07.2019 01:00:00 14,5 11,6 5 3 W 1018,2 15 0,0
17.07.2019 00:00:00 14,3 11,6 8 4 SW 1018,5 10 0,0
16.07.2019 23:00:00 14,8 11,7 11 6 SSW 1018,4 10 0,0
16.07.2019 22:00:00 15,9 11,9 13 7 SSW 1018,2 10 0,0
16.07.2019 21:00:00 18,3 13,0 11 6 SW 1018,0 10 0,0
16.07.2019 20:00:00 20,0 13,2 16 9 SSW 1017,7 10 0,0
16.07.2019 19:00:00 21,4 13,2 21 11 SSW 1017,6 10 0,0
16.07.2019 18:00:00 22,5 13,0 21 11 S 1017,6 10 0,0
16.07.2019 17:00:00 22,3 12,3 18 10 S 1017,8 10 0,0
16.07.2019 16:00:00 23,7 10,2 8 4 SSW 1018,1 10 0,0
16.07.2019 15:00:00 24,1 11,5 5 3 SSW 1018,4 40 0,0
16.07.2019 14:00:00 22,0 9,9 4 2 NNW 1018,8 10 0,0
16.07.2019 13:00:00 21,1 10,4 8 4 WSW 1019,2 10 0,0
16.07.2019 12:00:00 21,1 11,3 8 4 SSW 1019,5 35 0,0
16.07.2019 11:00:00 20,4 12,7 5 3 SSW 1019,7 35 0,0
16.07.2019 10:00:00 19,2 12,6 5 3 SW 1020,1 10 0,0
16.07.2019 09:00:00 16,6 11,4 11 6 SSW 1020,5 10 0,0
16.07.2019 08:00:00 14,0 10,8 4 2 S 1021,0 10 0,0
16.07.2019 07:00:00 11,8 10,6 2 1 SSE 1021,1 12 0,0
16.07.2019 06:00:00 9,9 9,0 4 2 SSE 1021,1 11 0,0
16.07.2019 05:00:00 10,1 9,1 2 1 S 1021,1 6 0,0
16.07.2019 04:00:00 10,2 9,3 4 2 SSE 1021,0 10 0,0
16.07.2019 03:00:00 10,3 9,2 4 2 SE 1021,3 10 0,0
16.07.2019 02:00:00 11,3 10,1 8 4 SW 1021,5 10 0,0
16.07.2019 01:00:00 11,5 9,7 5 3 SSW 1021,8 30 0,0
16.07.2019 00:00:00 12,3 10,1 8 4 SSW 1021,8 10 0,0
15.07.2019 23:00:00 13,0 10,5 9 5 S 1021,8 50 0,0
15.07.2019 22:00:00 14,2 10,5 9 5 S 1021,8 45 0,0
15.07.2019 21:00:00 16,8 11,4 13 7 S 1021,3 10 0,0
15.07.2019 20:00:00 20,3 10,1 9 5 ENE 1020,6 10 0,0
15.07.2019 19:00:00 21,0 9,3 8 4 NNE 1020,5 50 0,0
15.07.2019 18:00:00 22,2 9,3 8 4 E 1020,6 50 0,0
15.07.2019 17:00:00 22,2 9,5 8 4 NE 1021,1 10 0,0
15.07.2019 16:00:00 22,0 10,2 11 6 NE 1021,5 10 0,0
15.07.2019 15:00:00 21,4 10,7 13 7 E 1021,8 10 0,0
15.07.2019 14:00:00 20,8 10,6 13 7 N 1022,3 10 0,0
15.07.2019 13:00:00 19,5 10,0 11 6 ENE 1022,8 10 0,0
15.07.2019 12:00:00 17,5 9,7 9 5 NNE 1023,2 10 0,0
15.07.2019 11:00:00 16,9 9,8 13 7 NE 1023,4 10 0,0
15.07.2019 10:00:00 15,2 10,2 15 8 ENE 1023,8 10 0,0
15.07.2019 09:00:00 14,2 9,4 15 8 NE 1023,9 10 0,0
15.07.2019 08:00:00 13,4 9,7 11 6 ENE 1023,8 10 0,0
15.07.2019 07:00:00 12,8 9,9 11 6 ENE 1023,6 10 0,0
15.07.2019 06:00:00 10,5 8,7 8 4 NNW 1023,8 45 0,0
15.07.2019 05:00:00 11,5 9,4 4 2 NNE 1023,5 50 0,0
15.07.2019 04:00:00 12,1 9,9 5 3 NNE 1023,5 50 0,0
15.07.2019 03:00:00 13,0 10,1 13 7 ENE 1023,6 50 0,0
15.07.2019 02:00:00 11,9 9,8 11 6 ENE 1023,9 50 0,0
15.07.2019 01:00:00 14,2 10,6 13 7 ENE 1023,7 45 0,0
15.07.2019 00:00:00 15,2 10,5 8 4 NE 1023,5 50 0,0
14.07.2019 23:00:00 16,2 10,6 15 8 NE 1023,2 50 0,0
14.07.2019 22:00:00 17,4 10,9 13 7 NE 1023,1 10 0,0
14.07.2019 21:00:00 18,4 11,4 9 5 ENE 1022,7 45 0,0
14.07.2019 20:00:00 19,3 11,7 16 9 ENE 1022,5 50 0,0
14.07.2019 19:00:00 20,8 11,2 15 8 NE 1022,5 45 0,0
14.07.2019 18:00:00 21,7 10,8 13 7 ENE 1022,5 10 0,0
14.07.2019 17:00:00 21,6 13,1 15 8 ENE 1022,9 45 0,0
14.07.2019 16:00:00 20,6 11,3 18 10 ENE 1023,0 40 0,0
14.07.2019 15:00:00 20,6 11,9 21 11 NE 1022,9 35 0,0
14.07.2019 14:00:00 20,8 12,2 18 10 ENE 1023,0 30 0,0
14.07.2019 13:00:00 20,9 13,6 18 10 E 1023,1 40 0,0
14.07.2019 12:00:00 19,3 13,6 15 8 E 1023,3 10 0,0
14.07.2019 11:00:00 19,1 14,0 9 5 E 1023,3 35 0,0
14.07.2019 10:00:00 18,3 14,0 9 5 ENE 1023,4 25 0,0
14.07.2019 09:00:00 16,9 13,4 8 4 N 1023,4 10 0,0
14.07.2019 08:00:00 15,9 13,4 9 5 N 1023,1 17 0,0
14.07.2019 07:00:00 13,3 11,7 9 5 NNE 1023,1 18 0,0
14.07.2019 06:00:00 13,1 11,4 11 6 N 1023,0 23 0,0
14.07.2019 05:00:00 13,4 12,0 13 7 N 1022,8 26 0,0
14.07.2019 04:00:00 13,1 12,0 15 8 N 1022,9 14 0,0
14.07.2019 03:00:00 13,3 12,1 11 6 N 1023,4 18 0,0
14.07.2019 02:00:00 14,2 12,6 15 8 NNW 1023,4 21 0,0
14.07.2019 01:00:00 14,7 12,7 13 7 N 1023,1 10 0,0
14.07.2019 00:00:00 15,3 12,5 11 6 N 1022,9 50 0,0
13.07.2019 23:00:00 16,6 12,3 13 7 NNE 1022,6 10 0,0
13.07.2019 22:00:00 18,2 12,7 13 7 NE 1022,3 50 0,0
13.07.2019 21:00:00 19,2 13,1 15 8 NNE 1022,1 50 0,0
13.07.2019 20:00:00 20,6 11,9 18 10 N 1021,9 50 0,0
13.07.2019 19:00:00 21,4 11,3 13 7 N 1021,7 45 0,0
13.07.2019 18:00:00 23,1 11,4 13 7 N 1021,7 50 0,0
13.07.2019 17:00:00 21,0 10,1 11 6 N 1022,1 10 0,0
13.07.2019 16:00:00 20,8 10,7 11 6 NW 1022,4 10 0,0
13.07.2019 15:00:00 20,6 10,7 15 8 NNW 1022,6 10 0,0
13.07.2019 14:00:00 19,7 10,9 16 9 NNW 1022,9 10 0,0
13.07.2019 13:00:00 18,8 11,0 16 9 NW 1023,1 40 0,0
13.07.2019 12:00:00 18,7 11,7 16 9 N 1023,0 40 0,0
13.07.2019 11:00:00 17,5 11,5 18 10 NNW 1022,9 10 0,0
13.07.2019 10:00:00 17,6 11,7 21 11 NNW 1022,7 10 0,0
13.07.2019 09:00:00 17,4 12,1 15 8 N 1022,6 10 0,0
13.07.2019 08:00:00 15,6 12,3 13 7 NNW 1022,6 40 0,0
13.07.2019 07:00:00 13,0 11,5 11 6 NW 1022,5 40 0,0
13.07.2019 06:00:00 11,3 10,7 13 7 WNW 1022,1 10 0,0
13.07.2019 05:00:00 10,9 10,1 13 7 WNW 1021,9 45 0,0
13.07.2019 04:00:00 11,9 10,9 13 7 NW 1021,5 30 0,0
13.07.2019 03:00:00 12,1 10,7 9 5 NNW 1021,6 50 0,0
13.07.2019 02:00:00 12,9 10,6 9 5 NW 1021,4 10 0,0
13.07.2019 01:00:00 13,9 10,7 11 6 NNW 1020,9 50 0,0
13.07.2019 00:00:00 15,2 10,8 16 9 NNW 1021,0 50 0,0
12.07.2019 23:00:00 16,3 10,8 15 8 N 1020,5 50 0,0
12.07.2019 22:00:00 17,6 10,8 18 10 N 1019,8 50 0,0
12.07.2019 21:00:00 19,3 11,2 18 10 N 1018,7 10 0,0
12.07.2019 20:00:00 21,3 11,6 24 13 N 1017,8 45 0,0
12.07.2019 19:00:00 22,7 10,6 24 13 NNW 1017,1 45 0,0
12.07.2019 18:00:00 24,3 10,8 24 13 NNW 1016,5 10 0,0
12.07.2019 17:00:00 24,3 11,5 21 11 NNW 1016,3 45 0,0
12.07.2019 16:00:00 23,4 11,2 18 10 NNW 1016,2 40 0,0
12.07.2019 15:00:00 23,8 11,2 16 9 NW 1016,0 10 0,0
12.07.2019 14:00:00 22,9 10,6 18 10 NNW 1016,1 10 0,0
12.07.2019 13:00:00 22,0 11,5 18 10 NNW 1016,0 10 0,0
12.07.2019 12:00:00 21,8 12,7 22 12 NNW 1015,6 10 0,0
12.07.2019 11:00:00 21,6 13,7 18 10 NW 1015,3 10 0,0
12.07.2019 10:00:00 20,2 13,8 16 9 WNW 1015,2 10 0,0
12.07.2019 09:00:00 18,5 14,9 16 9 WNW 1015,2 10 0,0
12.07.2019 08:00:00 17,0 15,4 11 6 WNW 1014,9 10 0,0
12.07.2019 07:00:00 15,8 15,1 8 4 WNW 1014,6 10 0,0
12.07.2019 06:00:00 15,6 14,9 11 6 W 1013,9 25 0,0

tt = temperature
td = dewpoint
ff = wind speed
dd = wind direction
ppp = reduced air pressure
vv = visibility
rr = precipitation

Next stations